User: anonymous   Login
Location: Grandview
(34.8900°N, 117.1058°W)
Time: 13:13:45
(UTC-07:00)
Language:

STRAND 1 - Orbit

View from above orbital plane
View from above orbital plane
View from above satellite
View from above satellite

Ground track
Ground track

The orbit data is extracted from the following two-line orbital elements,

1 39090U 13009E   18201.57785715  .00000014  00000-0  20073-4 0  9992
2 39090  98.5191  47.5227 0008831 191.1450 168.9541 14.35033568282615
Epoch (UTC): 20 July 2018 13:52:06
Eccentricity: 0.0008831
inclination: 98.5191°
perigee height: 768 km
apogee height: 781 km
right ascension of ascending node: 47.5227°
argument of perigee: 191.1450°
revolutions per day: 14.35033568
mean anomaly at epoch: 168.9541°
orbit number at epoch: 28261

The dashed part of the orbit path shows where the satellite is in the earth's shadow,  

DLR